TimePDT,TemperatureF,Dew PointF,Humidity,Sea Level PressureIn,VisibilityMPH,Wind Direction,Wind SpeedMPH,Gust SpeedMPH,PrecipitationIn,Events,Conditions,WindDirDegrees,DateUTC
12:00 AM,46.4,39.2,76,30.30,9.0,East,8.1,-,N/A,,Clear,90,2013-03-30 07:00:00
1:00 AM,46.4,39.2,76,30.31,9.0,East,9.2,-,N/A,,Clear,100,2013-03-30 08:00:00
2:00 AM,45,40,76,30.30,,ENE,6.9,,,,,70,2013-03-30 09:00:00
2:00 AM,44.6,39.2,81,30.33,9.0,East,6.9,-,N/A,,Clear,80,2013-03-30 09:00:00
3:00 AM,42.8,39.2,87,30.33,9.0,East,9.2,-,N/A,,Clear,80,2013-03-30 10:00:00
4:00 AM,42.8,39.2,87,30.33,9.0,ENE,6.9,-,N/A,,Clear,70,2013-03-30 11:00:00
5:00 AM,43,39,79,30.27,,ENE,9.2,,,,,70,2013-03-30 12:00:00
5:00 AM,42.8,39.2,87,30.33,9.0,East,10.4,-,N/A,,Clear,90,2013-03-30 12:00:00
6:00 AM,41.0,37.4,87,30.33,9.0,East,9.2,-,N/A,,Clear,90,2013-03-30 13:00:00
7:00 AM,41.0,37.4,87,30.33,9.0,East,9.2,-,N/A,,Clear,90,2013-03-30 14:00:00
8:00 AM,42,38,80,30.29,,ENE,9.2,,,,,70,2013-03-30 15:00:00
8:00 AM,42.8,37.4,81,30.34,9.0,East,10.4,-,N/A,,Clear,90,2013-03-30 15:00:00
9:00 AM,46.4,39.2,76,30.33,9.0,East,8.1,-,N/A,,Clear,80,2013-03-30 16:00:00
10:00 AM,50.0,39.2,66,30.31,9.0,East,10.4,-,N/A,,Clear,80,2013-03-30 17:00:00
11:00 AM,54,41,51,30.27,,ENE,8.1,,,,,60,2013-03-30 18:00:00
11:00 AM,53.6,41.0,62,30.28,9.0,East,10.4,-,N/A,,Clear,80,2013-03-30 18:00:00
12:00 PM,59.0,39.2,48,30.25,9.0,East,9.2,-,N/A,,Clear,90,2013-03-30 19:00:00
1:00 PM,62.6,41.0,45,30.22,9.0,ESE,6.9,-,N/A,,Clear,120,2013-03-30 20:00:00
2:00 PM,66,42,30,30.19,,ESE,2.3,,,,,120,2013-03-30 21:00:00
2:00 PM,64.4,41.0,42,30.19,9.0,Variable,2.3,-,N/A,,Clear,0,2013-03-30 21:00:00
3:00 PM,66.2,39.2,37,30.17,9.0,West,8.1,-,N/A,,Clear,270,2013-03-30 22:00:00
4:00 PM,68.0,39.2,35,30.14,9.0,WSW,8.1,-,N/A,,Clear,250,2013-03-30 23:00:00
5:00 PM,67,40,25,30.12,,WSW,9.2,,,,,240,2013-03-31 00:00:00
5:00 PM,68.0,39.2,35,30.12,9.0,WSW,9.2,-,N/A,,Clear,250,2013-03-31 00:00:00
6:00 PM,64.4,41.0,42,30.12,9.0,WSW,6.9,-,N/A,,Clear,240,2013-03-31 01:00:00
7:00 PM,59.0,42.8,55,30.12,9.0,SSW,6.9,-,N/A,,Clear,210,2013-03-31 02:00:00
8:00 PM,53,41,53,30.09,,SSW,4.6,,,,,210,2013-03-31 03:00:00
8:00 PM,53.6,41.0,62,30.13,9.0,SW,3.5,-,N/A,,Clear,220,2013-03-31 03:00:00
9:00 PM,53.6,39.2,58,30.15,9.0,ENE,4.6,-,N/A,,Clear,60,2013-03-31 04:00:00
10:00 PM,51.8,39.2,62,30.17,9.0,East,8.1,-,N/A,,Clear,80,2013-03-31 05:00:00
11:00 PM,51,38,51,30.16,,ENE,8.1,,,,,70,2013-03-31 06:00:00
11:00 PM,50.0,37.4,62,30.17,9.0,East,10.4,-,N/A,,Clear,90,2013-03-31 06:00:00